Date String (YYYY-MM-DD hh:mm:ss) UTC,Instrument flags,absolute air pressure of the measurement (hPa),sample flow rate (lpm),inlet stack bypass flow (lpm),air temperature of the measurement (°C),ambient temperature measured by the external sensor (°C),aerosol sample conditioner tube jacket temperature (°C),OPC LED temperature (°C),internal box temperature (°C),relative humidity of the measurement (%),span deviation,mass concentration of particles derived from Lorenz-Mie calculation of OPC scattering (μg/m³),mass concentration of particles derived from Lorenz-Mie calculation of OPC scattering (μg/m³),mass concentration of particles derived from Lorenz-Mie calculation of OPC scattering (μg/m³)
DateTimeUTC,F1_M11,P_M11,Q1_M11,Q2_M11,T1_M11,T2_M11,T3_M11,T4_M11,T5_M11,U1_M11,ZSPAN_M11,X0_M11,X2_M11,X1_M11
2023-08-26 15:00:00,SystemResetWarning,0840.0,4.97,000.00,031.2,027.3,000.0,039.2,030.9,34.9,-001.0,0012.62,0008.38,0007.78
2023-08-26 15:01:00,SystemResetWarning,0839.9,5.00,000.00,031.2,027.3,000.0,039.2,030.9,34.9,-001.1,0012.93,0008.35,0007.79
2023-08-26 15:02:00,SystemResetWarning,0840.0,5.01,000.00,031.2,027.4,000.0,039.2,031.0,34.7,-001.5,0012.98,0008.34,0007.82
2023-08-26 15:03:00,SystemResetWarning,0840.0,4.98,000.00,031.3,027.5,000.0,039.2,031.0,34.6,-001.9,0013.21,0008.37,0007.84
2023-08-26 15:04:00,SystemResetWarning,0840.0,5.01,000.00,031.2,027.5,000.0,039.2,031.0,34.5,-002.1,0013.21,0008.39,0007.86
2023-08-26 15:05:00,SystemResetWarning,0840.0,5.01,000.00,031.2,027.6,000.0,039.2,031.0,34.5,-001.9,0013.26,0008.42,0007.88
2023-08-26 15:06:00,SystemResetWarning,0840.1,5.00,000.00,031.2,027.6,000.0,039.3,031.0,34.5,-002.1,0013.42,0008.40,0007.90
2023-08-26 15:07:00,SystemResetWarning,0840.1,4.99,000.00,031.2,027.6,000.0,039.3,031.1,34.6,-002.1,0013.34,0008.41,0007.96
2023-08-26 15:08:00,SystemResetWarning,0840.1,5.00,000.00,031.1,027.7,000.0,039.3,031.1,34.7,-001.9,0013.60,0008.49,0008.04
2023-08-26 15:09:00,SystemResetWarning,0840.1,5.01,000.00,031.1,027.7,000.0,039.3,031.1,34.5,-001.9,0013.80,0008.57,0008.13
2023-08-26 15:10:00,SystemResetWarning,0840.1,5.00,000.00,031.1,027.7,000.0,039.3,031.1,34.5,-002.1,0013.87,0008.63,0008.20
2023-08-26 15:11:00,SystemResetWarning,0840.1,4.99,000.00,031.1,027.2,000.0,039.2,031.1,34.5,-002.2,0013.76,0008.69,0008.25
2023-08-26 15:12:00,SystemResetWarning,0840.1,4.99,000.00,031.0,025.5,000.0,039.0,030.8,34.5,-002.2,0013.04,0008.75,0008.31
2023-08-26 15:13:00,SystemResetWarning,0840.1,5.02,000.00,030.9,024.7,000.0,038.9,030.6,34.5,-002.1,0013.13,0008.85,0008.38
2023-08-26 15:14:00,SystemResetWarning,0840.0,4.99,000.00,030.7,024.8,000.0,038.9,030.3,34.9,-001.7,0013.17,0008.93,0008.43
2023-08-26 15:15:00,SystemResetWarning,0839.9,5.00,000.00,030.6,025.1,000.0,038.9,030.3,35.2,-001.7,0012.68,0009.00,0008.50
2023-08-26 15:16:00,SystemResetWarning,0840.0,5.03,000.00,030.7,025.5,000.0,038.9,030.5,35.0,-001.6,0012.76,0009.04,0008.54
2023-08-26 15:17:00,SystemResetWarning,0840.0,4.96,000.00,030.9,025.9,000.0,038.9,030.7,34.3,-001.6,0012.78,0009.14,0008.57
2023-08-26 15:18:00,SystemResetWarning,0840.0,5.02,000.00,031.0,026.2,000.0,038.9,030.7,33.8,-001.8,0012.89,0009.20,0008.60
2023-08-26 15:19:00,SystemResetWarning,0840.0,5.00,000.00,031.0,026.4,000.0,038.9,030.7,33.6,-001.9,0012.80,0009.21,0008.62
2023-08-26 15:20:00,SystemResetWarning,0840.0,5.00,000.00,031.0,026.6,000.0,038.9,030.7,33.7,-001.7,0012.74,0009.25,0008.64
2023-08-26 15:21:00,SystemResetWarning,0840.0,5.00,000.00,031.0,026.8,000.0,038.9,030.7,33.7,-001.7,0012.75,0009.25,0008.65
2023-08-26 15:22:00,SystemResetWarning,0840.0,5.00,000.00,031.0,027.0,000.0,039.0,030.7,33.8,-001.6,0012.76,0009.23,0008.66
2023-08-26 15:23:00,SystemResetWarning,0840.0,5.00,000.00,031.0,027.1,000.0,039.0,030.8,34.0,-001.4,0012.74,0009.20,0008.63
2023-08-26 15:24:00,SystemResetWarning,0840.0,5.00,000.00,030.9,027.2,000.0,039.0,030.8,34.0,-001.3,0012.74,0009.15,0008.59
2023-08-26 15:25:00,SystemResetWarning,0840.1,5.00,000.00,030.9,027.3,000.0,039.0,030.8,34.0,-001.4,0012.68,0009.10,0008.54
2023-08-26 15:26:00,SystemResetWarning,0840.1,5.00,000.00,030.8,027.4,000.0,039.0,030.8,34.2,-001.3,0012.61,0009.05,0008.51
2023-08-26 15:27:00,SystemResetWarning,0840.1,5.00,000.00,030.8,027.4,000.0,039.0,030.8,34.3,-001.4,0012.79,0009.01,0008.47
2023-08-26 15:28:00,SystemResetWarning,0840.1,4.99,000.00,030.8,027.5,000.0,039.0,030.8,34.1,-001.3,0012.92,0008.99,0008.47
2023-08-26 15:29:00,SystemResetWarning,0840.1,5.01,000.00,030.7,027.5,000.0,039.0,030.9,34.2,-001.1,0012.81,0008.95,0008.45
2023-08-26 15:30:00,SystemResetWarning,0840.1,5.01,000.00,030.7,027.5,000.0,039.0,030.9,34.1,-000.6,0012.77,0008.94,0008.43
2023-08-26 15:31:00,SystemResetWarning,0840.1,5.00,000.00,030.7,027.6,000.0,039.0,030.9,34.2,-000.7,0012.72,0008.93,0008.43
2023-08-26 15:32:00,SystemResetWarning,0840.1,4.99,000.00,030.6,027.6,000.0,039.0,030.9,34.2,-000.7,0012.74,0008.90,0008.39
2023-08-26 15:33:00,SystemResetWarning,0840.1,5.00,000.00,030.6,027.6,000.0,039.0,030.9,34.4,-000.6,0012.87,0008.84,0008.33
2023-08-26 15:34:00,SystemResetWarning,0840.1,4.99,000.00,030.6,027.7,000.0,039.0,030.9,34.6,-000.6,0013.23,0008.84,0008.32
2023-08-26 15:35:00,SystemResetWarning,0840.1,4.99,000.00,030.5,027.2,000.0,038.9,030.9,34.8,-000.7,0013.62,0008.90,0008.34
2023-08-26 15:36:00,SystemResetWarning,0839.9,5.01,000.00,030.5,025.5,000.0,038.7,030.6,35.2,-000.8,0013.62,0008.91,0008.35
2023-08-26 15:37:00,SystemResetWarning,0839.9,5.02,000.00,030.6,024.8,000.0,038.6,030.5,35.5,-001.0,0013.70,0008.95,0008.36
2023-08-26 15:38:00,SystemResetWarning,0839.9,5.01,000.00,030.7,024.8,000.0,038.6,030.3,35.0,-000.9,0013.64,0009.00,0008.39
2023-08-26 15:39:00,SystemResetWarning,0840.0,4.97,000.00,030.8,025.1,000.0,038.6,030.4,34.8,-001.0,0013.29,0008.99,0008.40
2023-08-26 15:40:00,SystemResetWarning,0840.0,5.00,000.00,030.8,025.5,000.0,038.6,030.5,34.5,-000.9,0013.39,0009.04,0008.42
2023-08-26 15:41:00,SystemResetWarning,0840.0,5.01,000.00,030.9,025.9,000.0,038.7,030.5,34.5,-001.0,0013.46,0009.06,0008.43
2023-08-26 15:42:00,SystemResetWarning,0840.1,4.99,000.00,030.9,026.2,000.0,038.7,030.6,34.5,-000.9,0013.47,0009.04,0008.42
2023-08-26 15:43:00,SystemResetWarning,0840.1,4.99,000.00,030.8,026.5,000.0,038.7,030.6,34.3,-000.8,0013.44,0009.03,0008.43
2023-08-26 15:44:00,SystemResetWarning,0840.1,4.99,000.00,030.8,026.7,000.0,038.8,030.6,34.1,-001.0,0013.25,0009.05,0008.47
2023-08-26 15:45:00,SystemResetWarning,0840.0,5.00,000.00,030.8,026.9,000.0,038.8,030.7,34.3,-001.1,0012.85,0009.07,0008.50
2023-08-26 15:46:00,SystemResetWarning,0840.0,5.01,000.00,030.8,027.0,000.0,038.8,030.7,34.4,-001.4,0012.29,0009.01,0008.49
2023-08-26 15:47:00,SystemResetWarning,0840.0,5.01,000.00,030.8,027.1,000.0,038.9,030.7,34.2,-001.6,0012.24,0008.98,0008.48
2023-08-26 15:48:00,SystemResetWarning,0840.0,5.00,000.00,030.7,027.2,000.0,038.9,030.7,34.2,-001.5,0012.24,0008.98,0008.47
2023-08-26 15:49:00,SystemResetWarning,0840.0,4.99,000.00,030.7,027.3,000.0,038.9,030.8,34.4,-001.3,0012.05,0008.87,0008.40
2023-08-26 15:50:00,SystemResetWarning,0840.0,5.00,000.00,030.7,027.4,000.0,038.9,030.8,34.6,-001.1,0012.02,0008.79,0008.31
2023-08-26 15:51:00,SystemResetWarning,0840.0,5.01,000.00,030.6,027.5,000.0,038.9,030.8,34.7,-001.3,0011.88,0008.68,0008.22
2023-08-26 15:52:00,SystemResetWarning,0840.0,5.01,000.00,030.6,027.5,000.0,038.9,030.8,34.7,-001.4,0011.75,0008.58,0008.14
2023-08-26 15:53:00,SystemResetWarning,0840.1,5.01,000.00,030.6,027.6,000.0,038.9,030.8,34.4,-001.5,0011.75,0008.53,0008.09
2023-08-26 15:54:00,SystemResetWarning,0840.0,5.00,000.00,030.6,027.6,000.0,038.9,030.9,34.4,-001.6,0011.78,0008.53,0008.03
2023-08-26 15:55:00,SystemResetWarning,0840.1,5.00,000.00,030.5,027.7,000.0,038.9,030.9,34.7,-001.6,0011.77,0008.49,0007.97
2023-08-26 15:56:00,SystemResetWarning,0840.0,4.98,000.00,030.5,027.7,000.0,038.9,030.9,35.1,-001.6,0011.65,0008.41,0007.90
2023-08-26 15:57:00,SystemResetWarning,0840.0,5.02,000.00,030.6,027.7,000.0,038.9,031.0,34.6,-001.3,0011.80,0008.38,0007.87
2023-08-26 15:58:00,SystemResetWarning,0840.0,4.98,000.00,030.8,027.1,000.0,038.8,031.0,34.2,-001.0,0011.88,0008.37,0007.85
2023-08-26 15:59:00,SystemResetWarning,0840.0,5.01,000.00,030.8,025.4,000.0,038.6,030.8,34.1,-000.9,0011.98,0008.35,0007.84
